Location: State Camp
(41.2367°N, 77.7828°W)
Time: 11:39:48
(UTC-04:00)

ADEOS Rocket - Visible Passes

Search period start: 18 September 2014 00:00
Search period end: 28 September 2014 00:00
Orbit: 860 x 1307 km, 98.7° (Epoch: 17 September)

Date Brightness Start Highest point End Pass type
(mag) Time Alt. Az. Time Alt. Az. Time Alt. Az.
18 Sep 4.3 20:36:40 20° E 20:38:35 23° ENE 20:43:38 10° N visible
18 Sep 3.4 22:23:38 61° W 22:23:38 61° W 22:30:03 10° NNW visible
19 Sep 5.0 19:49:41 10° ENE 19:50:44 10° NE 19:51:47 10° NE visible
19 Sep 3.1 21:34:11 58° E 21:34:36 59° ENE 21:41:15 10° N visible
19 Sep 5.0 23:21:09 22° W 23:21:09 22° W 23:25:38 10° NW visible
20 Sep 4.1 20:44:44 25° E 20:46:16 27° ENE 20:51:47 10° N visible
20 Sep 3.7 22:31:42 52° W 22:31:42 52° W 22:37:54 10° NNW visible
21 Sep 4.9 19:55:46 10° ENE 19:58:21 13° NE 20:01:01 10° NNE visible
21 Sep 3.0 21:42:15 69° E 21:42:23 69° ENE 21:49:13 10° N visible
21 Sep 5.2 23:29:13 19° W 23:29:13 19° W 23:33:12 10° NW visible
22 Sep 3.9 20:52:48 30° E 20:53:58 32° ENE 20:59:54 10° N visible
22 Sep 4.0 22:39:46 45° W 22:39:46 45° W 22:45:44 10° NNW visible
23 Sep 4.8 20:03:21 12° ENE 20:05:59 15° NE 20:09:36 10° NNE visible
23 Sep 3.0 21:50:19 79° ENE 21:50:19 79° ENE 21:57:11 10° NNW visible
23 Sep 5.4 23:37:17 16° W 23:37:17 16° W 23:40:40 10° NW visible
24 Sep 3.8 21:00:53 35° E 21:01:42 37° ENE 21:08:00 10° N visible
24 Sep 4.3 22:47:51 38° W 22:47:51 38° W 22:53:32 10° NNW visible
25 Sep 4.7 20:11:26 15° ENE 20:13:39 18° NE 20:17:59 10° NNE visible
25 Sep 3.2 21:58:24 81° NNW 21:58:24 81° NNW 22:05:07 10° NNW visible
25 Sep 5.5 23:45:22 14° WNW 23:45:22 14° WNW 23:47:59 10° NW visible
26 Sep 3.6 21:08:58 42° ENE 21:09:26 43° ENE 21:16:03 10° N visible
26 Sep 4.6 22:55:56 33° WNW 22:55:56 33° WNW 23:01:19 10° NNW visible
27 Sep 4.5 20:19:32 19° ENE 20:21:19 21° ENE 20:26:16 10° NNE visible
27 Sep 3.4 22:06:30 72° NW 22:06:30 72° NW 22:13:03 10° NNW visible
27 Sep 5.7 23:53:28 12° WNW 23:53:28 12° WNW 23:55:00 10° WNW visible
